SL-8 R/B - Orbit

View from above orbital plane
View from above orbital plane
View from above satellite
View from above satellite

Ground track
Ground track

The orbit data is extracted from the following two-line orbital elements,

1 33245U 08036B   13142.12654584  .00026343  00000-0  45735-3 0  4574
2 33245 098.1162 169.9767 0013639 105.8365 336.1259 15.50733395270370
Epoch (UTC): 22 May 2013 03:02:13
Eccentricity: 0.0013639
inclination: 98.1162°
perigee height: 405 km
apogee height: 424 km
right ascension of ascending node: 169.9767°
argument of perigee: 105.8365°
revolutions per day: 15.50733395
mean anomaly at epoch: 336.1259°
orbit number at epoch: 27037

The dashed part of the orbit path shows where the satellite is in the earth's shadow,  

Developed and maintained by Chris Peat, Heavens-Above GmbH. Please read the updated FAQ before sending e-mail. Imprint. DLR